This is the latest recevied weather packets stored in our database for station/object K7KAZ. If no packets are shown the sender has not sent any weather packets the latest 10 day(s).
| Time | Temp. | Humidity | Pressure | Rain* | Wind** | Luminosity | Snow |
|---|---|---|---|---|---|---|---|
| 1777699305 | 25° C | 29% | 1012.8 hPa | 0 mm | - | 0 W/m² | - |
| 1777699003 | 25° C | 29% | 1012.9 hPa | 0 mm | - | 0 W/m² | - |
| 1777698701 | 25° C | 29% | 1012.8 hPa | 0 mm | - | 0 W/m² | - |
| 1777698397 | 25.56° C | 28% | 1012.8 hPa | 0 mm | - | 0 W/m² | - |
| 1777698093 | 25.56° C | 28% | 1012.7 hPa | 0 mm | - | 0 W/m² | - |
| 1777697790 | 25.56° C | 29% | 1012.7 hPa | 0 mm | - | 0 W/m² | - |
| 1777697488 | 25.56° C | 28% | 1012.8 hPa | 0 mm | - | 0 W/m² | - |
| 1777697184 | 25.56° C | 28% | 1012.6 hPa | 0 mm | - | 0 W/m² | - |
| 1777696881 | 25.56° C | 27% | 1012.6 hPa | 0 mm | - | 0 W/m² | - |
| 1777696579 | 26.67° C | 25% | 1012.5 hPa | 0 mm | - | 0 W/m² | - |
| 1777696275 | 26.67° C | 25% | 1012.7 hPa | 0 mm | - | 0 W/m² | - |
| 1777695975 | 26.67° C | 25% | 1012.6 hPa | 0 mm | - | 0 W/m² | - |
| 1777695673 | 26.67° C | 25% | 1012.6 hPa | 0 mm | - | 0 W/m² | - |
| 1777695370 | 26.67° C | 24% | 1012.5 hPa | 0 mm | - | 0 W/m² | - |
| 1777695067 | 27.22° C | 25% | 1012.5 hPa | 0 mm | - | 0 W/m² | - |
| 1777694764 | 27.22° C | 24% | 1012.5 hPa | 0 mm | - | 0 W/m² | - |
| 1777694461 | 26.67° C | 25% | 1012.4 hPa | 0 mm | - | 0 W/m² | - |
| 1777694156 | 26.67° C | 25% | 1012.5 hPa | 0 mm | - | 0 W/m² | - |
| 1777693854 | 26.67° C | 25% | 1012.1 hPa | 0 mm | - | 0 W/m² | - |
| 1777693552 | 27.22° C | 24% | 1012.1 hPa | 0 mm | - | 0 W/m² | - |
| 1777693250 | 27.22° C | 24% | 1012 hPa | 0 mm | - | 0 W/m² | - |
| 1777692948 | 27.78° C | 24% | 1012.1 hPa | 0 mm | - | 0 W/m² | - |
| 1777692645 | 27.78° C | 23% | 1012 hPa | 0 mm | - | 0 W/m² | - |
| 1777692341 | 27.78° C | 23% | 1011.8 hPa | 0 mm | - | 0 W/m² | - |
| 1777692038 | 27.78° C | 23% | 1011.9 hPa | 0 mm | - | 0 W/m² | - |
* Rain latest hour (hover to see other rain measurements)
** Current wind speed in m/s (hover to see current wind gust speed)